Regional Weather Roundup
Issued by NWS

Home | Current Version | Previous Version | Text Only | Print | Product List | Glossary On
Versions: 1 2 3 4 5 6 7 8 9 10 11 12 13 14 15 16 17 18 19 20 21 22 23 24 25 26 27 28 29 30 31 32 33 34 35 36 37 38 39 40 41 42 43 44 45 46 47 48 49 50
000
ASUS43 KMKX 161920
RWRWI

WISCONSIN REGIONAL WEATHER ROUNDUP
NATIONAL WEATHER SERVICE MILWAUKEE/SULLIVAN WI
200 PM CDT MON MAY 16 2022

NOTE: "FAIR" INDICATES FEW OR NO CLOUDS BELOW 12,000 FEET WITH NO
SIGNIFICANT WEATHER AND/OR OBSTRUCTIONS TO VISIBILITY.

WIZ001-002-006>008-014>016-023>028-162000-
NORTHWEST WISCONSIN

CITY           SKY/WX    TMP DP  RH WIND       PRES   REMARKS
SUPERIOR ARPT  MOSUNNY   64  38  39 NW14G21   29.91S
ASHLAND        SUNNY     61  37  41 NW15G23   29.90S
HAYWARD        CLOUDY    61  37  41 W8G18     29.89S
SIREN          PTSUNNY   64  34  33 NW13G18   29.91S
CUMBERLAND     PTSUNNY   63  37  39 NW14      29.90S
RICE LAKE      PTSUNNY   66  38  34 W15       29.91S
CHETEK         PTSUNNY   68  38  33 NW10G18   29.89S
LADYSMITH        N/A     64  38  37 CALM      29.90R
EAU CLAIRE     MOSUNNY   70  37  29 NW14G25   29.87F
MENOMONIE        N/A     69  35  29 W10G21    29.89S
NEW RICHMOND   SUNNY     67  33  28 NW20      29.91S
OSCEOLA        MOSUNNY   70  42  36 NW13G18   29.95S
$$

WIZ003>005-009-010-017-018-162000-
NORTH CENTRAL WISCONSIN

CITY           SKY/WX    TMP DP  RH WIND       PRES   REMARKS
MANITOWISH WTR MOSUNNY   58  38  47 NW12G22   29.87R
ARBOR VITAE    PTSUNNY   59  22  23 N16       29.85R
WOODRUFF       PTSUNNY   59  22  23 N16       29.85R
RHINELANDER    PTSUNNY   62  36  37 NW14G29   29.84S
EAGLE RIVER    MOSUNNY   58  33  39 NW22G29   29.84R
LAND O LAKES   MOSUNNY   56  33  42 NW14G21   29.88R
PHILLIPS       PTSUNNY   62  38  42 NW10G18   29.85S
TOMAHAWK       CLOUDY    62  36  37 W13G21    29.85R
MEDFORD        CLOUDY    63  39  40 NW12G25   29.85S
MERRILL        CLOUDY    64  38  39 NW14G23   29.83R
$$

WIZ029-030-035-036-043>047-162000-
CENTRAL WISCONSIN

CITY           SKY/WX    TMP DP  RH WIND       PRES   REMARKS
WAUSAU         PTSUNNY   69  35  28 W17G28    29.82R
MOSINEE        PTSUNNY   64  39  39 NW16G29   29.85S
MARSHFIELD     SUNNY     70  38  31 NW23G36   29.84S
STEVENS POINT  MOSUNNY   70  25  18 W16G31    29.84R
WAUPACA        SUNNY     73  33  23 NW21G32   29.81S
WAUTOMA        PTSUNNY   73  38  27 W24       29.81F
WISC RAPIDS    MOSUNNY   70  37  29 W15G29    29.84S
CAMP DOUGLAS   PTSUNNY   73  37  27 NW16G24   29.83S
$$

WIZ011>013-019>022-031-037>040-048>050-162000-
NORTHEAST WISCONSIN

CITY           SKY/WX    TMP DP  RH WIND       PRES   REMARKS
ANTIGO         CLOUDY    62  40  44 NW16G24   29.83R
SHAWANO        PTSUNNY   70  37  30 W14G20    29.79S
OCONTO         CLOUDY    69  36  30 W13G22    29.78R
STURGEON BAY   MOSUNNY   69  40  34 W15G23    29.78S
GREEN BAY      MOSUNNY   73  37  27 NW21G31   29.78F
MANITOWOC      PTSUNNY   71  38  29 NW16      29.79S
APPLETON       MOSUNNY   70  34  26 W28G37    29.79F
CLINTONVILLE   NOT AVBL
OSHKOSH        MOSUNNY   72  39  30 W13G30    29.79S
$$

WIZ032>034-041-042-053>061-162000-
SOUTHWEST WISCONSIN

CITY           SKY/WX    TMP DP  RH WIND       PRES   REMARKS
LA CROSSE      SUNNY     77  41  27 NW18G25   29.86F
SPARTA         MOSUNNY   74  37  26 W16G26    29.87F
VIROQUA        NOT AVBL
BOSCOBEL       MOSUNNY   77  39  25 W12G20    29.87F
PRAIRIE DU CHI MOSUNNY   76  34  22 W18G31    29.87F
PLATTEVILLE    SUNNY     76  40  27 W20G25    29.89S
$$

WIZ056-057-062-063-064-067-068-162000-
SOUTH CENTRAL WISCONSIN

CITY           SKY/WX    TMP DP  RH WIND       PRES   REMARKS
REEDSBURG      MOSUNNY   74  41  30 NW20G26   29.86R
BARABOO/DELLS  MOSUNNY   72  36  26 W20G26    29.85S
LONE ROCK      MOSUNNY   76  40  27 W18G31    29.85F
MINERAL POINT  MOSUNNY   73  34  23 W17G26    29.88S
MADISON        PTSUNNY   74  38  27 NW13G23   29.84F
MIDDLETON      MOSUNNY   73  35  25 W14G23    29.86F
WATERTOWN      MOSUNNY   74  35  23 W17G23    29.83S
MONROE         MOSUNNY   73  36  25 NW12G29   29.86F
JANESVILLE     MOSUNNY   75  30  19 NW16G32   29.85F
$$

WIZ051-052-058>065-066-070>072-162000-
SOUTHEAST WISCONSIN

CITY           SKY/WX    TMP DP  RH WIND       PRES   REMARKS
MILWAUKEE      MOSUNNY   76  37  24 W12G25    29.81F
WAUKESHA       MOSUNNY   72  37  28 W15G30    29.84S
MILWAUKEE/TIMM MOSUNNY   73  30  20 W16G30    29.82F
RACINE         MOSUNNY   76  37  24 W15G24    29.84S
KENOSHA        MOSUNNY   77  39  25 W20G31    29.83F
FOND DU LAC    MOSUNNY   75  38  26 W18G32    29.80F
SHEBOYGAN      MOSUNNY   72  41  32 W16G31    29.79F
WEST BEND      MOSUNNY   72  32  23 W16G24    29.81S
JUNEAU         MOSUNNY   71  37  29 W18G26    29.83S
$$

LSZ147-162-162000-
LAKE SUPERIOR

STATION/POSITION TIME  TEMP    WIND        PRES    WAVE
                       AIR SEA DIR/SP/G            HT/PER
                 (UTC) (F)     (DEG/KT/KT) (MB)    (FT/S)
$$

LMZ867-665-643>646-162000-
LAKE MICHIGAN

STATION/POSITION TIME  TEMP    WIND        PRES    WAVE
                       AIR SEA DIR/SP/G            HT/PER
                 (UTC) (F)     (DEG/KT/KT) (MB)    (FT/S)
$$

TC  - TEMPERATURE IN CELSIUS
VSB - VISIBILITY IN STATUTE MILES
WCI - WIND CHILL INDEX
HX  - HEAT INDEX




USA.gov is the U.S. government's official web portal to all federal, state and local government web resources and services.